QPF
0.00 0.00 0.00 0.00 0.00 0.00 0.00 0.01 0.01 0.00 0.00 0.00 0.00 0.01 0.01 0.01 0.02 0.02 0.03 0.03 0.03 0.03 0.02 0.03 0.03 0.04 0.05 0.05 0.06 0.07 0.07 0.08 0.07 0.05 0.03 0.03 0.03 0.04 0.05 0.05 0.05 0.05 0.05
0.00 0.00 0.00 0.00 0.00 0.00 0.00 0.00 0.00 0.00 0.00 0.00 0.00 0.00 0.00 0.01 0.01 0.02 0.03 0.03 0.03 0.03 0.02 0.02 0.02 0.02 0.03 0.03 0.04 0.04 0.05 0.05 0.05 0.05 0.04 0.03 0.02 0.03 0.04 0.06 0.06 0.06 0.05
0.00 0.00 0.00 0.00 0.00 0.00 0.00 0.00 0.00 0.00 0.00 0.00 0.00 0.00 0.00 0.00 0.01 0.01 0.02 0.03 0.03 0.03 0.03 0.03 0.03 0.02 0.02 0.02 0.02 0.03 0.03 0.04 0.04 0.04 0.04 0.03 0.03 0.03 0.04 0.06 0.07 0.07 0.06
0.00 0.00 0.00 0.00 0.00 0.00 0.00 0.00 0.00 0.00 0.00 0.00 0.00 0.00 0.00 0.00 0.00 0.01 0.01 0.02 0.02 0.03 0.03 0.03 0.03 0.03 0.02 0.02 0.02 0.02 0.03 0.03 0.04 0.04 0.05 0.04 0.04 0.04 0.04 0.06 0.08 0.09 0.07
0.00 0.00 0.00 0.00 0.00 0.00 0.00 0.00 0.00 0.00 0.00 0.00 0.00 0.00 0.00 0.00 0.00 0.01 0.01 0.02 0.02 0.02 0.02 0.02 0.02 0.03 0.03 0.03 0.03 0.03 0.04 0.04 0.05 0.05 0.05 0.05 0.05 0.05 0.04 0.05 0.06 0.08 0.09
0.00 0.00 0.00 0.00 0.00 0.00 0.00 0.00 0.00 0.00 0.00 0.00 0.00 0.00 0.00 0.00 0.00 0.01 0.02 0.02 0.02 0.02 0.02 0.02 0.02 0.02 0.02 0.03 0.03 0.03 0.04 0.05 0.06 0.06 0.06 0.05 0.04 0.05 0.05 0.04 0.05 0.06 0.07
0.00 0.00 0.00 0.00 0.00 0.00 0.00 0.00 0.00 0.01 0.00 0.00 0.00 0.00 0.00 0.00 0.00 0.01 0.02 0.02 0.02 0.01 0.01 0.01 0.01 0.01 0.02 0.02 0.02 0.02 0.02 0.03 0.04 0.05 0.05 0.05 0.04 0.04 0.05 0.05 0.04 0.05 0.05
0.01 0.00 0.00 0.00 0.00 0.00 0.00 0.00 0.00 0.01 0.01 0.00 0.00 0.00 0.00 0.00 0.00 0.01 0.02 0.01 0.01 0.01 0.01 0.01 0.01 0.01 0.01 0.02 0.02 0.02 0.02 0.02 0.02 0.03 0.03 0.03 0.03 0.04 0.05 0.06 0.06 0.05 0.04
0.01 0.01 0.01 0.00 0.00 0.00 0.00 0.00 0.00 0.00 0.01 0.00 0.00 0.00 0.00 0.00 0.00 0.01 0.02 0.01 0.01 0.01 0.00 0.01 0.01 0.01 0.01 0.03 0.03 0.03 0.02 0.01 0.02 0.02 0.03 0.04 0.05 0.05 0.06 0.07 0.07 0.07 0.06
0.01 0.02 0.01 0.01 0.01 0.01 0.01 0.01 0.00 0.00 0.01 0.01 0.00 0.00 0.00 0.00 0.00 0.01 0.01 0.02 0.01 0.01 0.01 0.01 0.01 0.02 0.02 0.03 0.04 0.04 0.03 0.02 0.01 0.02 0.02 0.03 0.04 0.05 0.05 0.05 0.05 0.06 0.05
0.01 0.02 0.02 0.02 0.02 0.01 0.01 0.01 0.01 0.01 0.01 0.01 0.00 0.00 0.00 0.00 0.00 0.01 0.01 0.02 0.02 0.02 0.01 0.01 0.01 0.01 0.03 0.03 0.04 0.04 0.03 0.02 0.02 0.02 0.02 0.02 0.03 0.04 0.04 0.04 0.04 0.04 0.04
0.01 0.02 0.03 0.03 0.02 0.01 0.01 0.01 0.01 0.02 0.01 0.01 0.00 0.00 0.00 0.00 0.00 0.00 0.01 0.02 0.02 0.03 0.02 0.01 0.01 0.02 0.02 0.02 0.03 0.03 0.03 0.03 0.03 0.03 0.03 0.03 0.03 0.03 0.03 0.03 0.03 0.03 0.03
0.01 0.02 0.03 0.03 0.02 0.02 0.01 0.01 0.01 0.02 0.03 0.02 0.01 0.01 0.01 0.00 0.00 0.01 0.01 0.01 0.02 0.02 0.02 0.02 0.02 0.02 0.02 0.02 0.02 0.02 0.02 0.02 0.03 0.03 0.02 0.02 0.02 0.03 0.03 0.03 0.03 0.03 0.03
0.01 0.01 0.01 0.03 0.03 0.02 0.02 0.02 0.02 0.02 0.04 0.04 0.04 0.03 0.01 0.01 0.01 0.01 0.02 0.01 0.01 0.02 0.02 0.02 0.02 0.02 0.02 0.02 0.02 0.02 0.02 0.02 0.02 0.02 0.02 0.02 0.02 0.02 0.03 0.03 0.04 0.04 0.05
0.01 0.00 0.01 0.01 0.03 0.03 0.02 0.02 0.02 0.02 0.03 0.05 0.06 0.05 0.04 0.03 0.02 0.03 0.03 0.03 0.03 0.03 0.03 0.02 0.02 0.02 0.02 0.01 0.01 0.02 0.02 0.02 0.02 0.02 0.01 0.02 0.02 0.03 0.03 0.03 0.03 0.04 0.04
0.01 0.00 0.00 0.01 0.01 0.02 0.03 0.03 0.03 0.03 0.03 0.03 0.04 0.05 0.06 0.05 0.05 0.04 0.03 0.03 0.03 0.03 0.03 0.03 0.03 0.02 0.02 0.02 0.02 0.02 0.02 0.02 0.02 0.02 0.02 0.02 0.02 0.02 0.03 0.03 0.04 0.04 0.04
0.01 0.01 0.01 0.01 0.01 0.01 0.01 0.01 0.02 0.02 0.03 0.03 0.03 0.04 0.05 0.06 0.06 0.05 0.04 0.03 0.02 0.02 0.02 0.02 0.02 0.02 0.03 0.03 0.03 0.02 0.02 0.02 0.02 0.02 0.02 0.02 0.02 0.02 0.03 0.03 0.04 0.05 0.05
0.01 0.01 0.01 0.01 0.01 0.01 0.01 0.01 0.01 0.01 0.01 0.02 0.02 0.03 0.04 0.04 0.05 0.05 0.05 0.04 0.03 0.02 0.02 0.02 0.02 0.02 0.02 0.03 0.03 0.03 0.02 0.02 0.02 0.02 0.02 0.02 0.02 0.02 0.03 0.03 0.04 0.05 0.05
0.01 0.01 0.01 0.01 0.01 0.01 0.01 0.00 0.00 0.00 0.01 0.01 0.01 0.01 0.01 0.02 0.02 0.03 0.03 0.04 0.04 0.04 0.03 0.03 0.02 0.02 0.02 0.03 0.03 0.03 0.03 0.02 0.02 0.02 0.03 0.03 0.03 0.03 0.03 0.03 0.04 0.04 0.05
0.01 0.01 0.01 0.01 0.01 0.01 0.01 0.01 0.00 0.00 0.00 0.00 0.01 0.01 0.01 0.01 0.01 0.01 0.01 0.02 0.03 0.03 0.03 0.03 0.03 0.02 0.02 0.03 0.03 0.03 0.03 0.03 0.02 0.02 0.03 0.03 0.03 0.03 0.04 0.04 0.05 0.06 0.06
0.01 0.01 0.01 0.01 0.01 0.01 0.01 0.01 0.01 0.01 0.01 0.01 0.01 0.01 0.02 0.02 0.02 0.01 0.01 0.01 0.02 0.02 0.03 0.03 0.03 0.03 0.02 0.03 0.03 0.03 0.03 0.03 0.03 0.03 0.03 0.03 0.04 0.04 0.05 0.05 0.05 0.06 0.06
0.01 0.01 0.01 0.01 0.01 0.01 0.01 0.01 0.01 0.01 0.01 0.01 0.01 0.00 0.01 0.01 0.01 0.01 0.01 0.02 0.02 0.02 0.02 0.02 0.02 0.02 0.03 0.03 0.04 0.04 0.04 0.03 0.03 0.03 0.03 0.04 0.05 0.05 0.06 0.06 0.06 0.06 0.06
0.01 0.01 0.01 0.01 0.01 0.01 0.01 0.01 0.01 0.01 0.01 0.01 0.01 0.01 0.01 0.01 0.01 0.01 0.01 0.02 0.02 0.02 0.02 0.02 0.02 0.02 0.02 0.03 0.03 0.04 0.05 0.05 0.05 0.05 0.05 0.06 0.07 0.07 0.07 0.07 0.07 0.07 0.07
0.01 0.01 0.01 0.01 0.01 0.01 0.01 0.01 0.01 0.01 0.01 0.01 0.01 0.01 0.01 0.01 0.01 0.01 0.01 0.01 0.02 0.02 0.02 0.02 0.02 0.02 0.02 0.03 0.03 0.03 0.04 0.05 0.06 0.08 0.08 0.09 0.08 0.08 0.08 0.07 0.07 0.07 0.06
0.01 0.01 0.01 0.01 0.01 0.01 0.01 0.01 0.01 0.01 0.01 0.01 0.01 0.01 0.01 0.01 0.01 0.01 0.01 0.01 0.01 0.01 0.01 0.02 0.02 0.02 0.02 0.03 0.03 0.03 0.04 0.05 0.06 0.08 0.09 0.10 0.09 0.08 0.07 0.07 0.07 0.06 0.06
0.01 0.01 0.01 0.01 0.01 0.01 0.01 0.01 0.01 0.01 0.01 0.01 0.01 0.01 0.01 0.01 0.01 0.01 0.01 0.01 0.01 0.01 0.01 0.01 0.02 0.02 0.02 0.02 0.02 0.02 0.03 0.04 0.04 0.06 0.07 0.08 0.08 0.07 0.07 0.07 0.06 0.06 0.05
MSLP
1029.49 1029.23 1028.95 1028.62 1028.26 1027.87 1027.45 1027.03 1026.60 1026.18 1025.79 1025.40 1025.03 1024.67 1024.31 1023.95 1023.60 1023.25 1022.92 1022.59 1022.28 1021.98 1021.69 1021.39 1021.09 1020.78 1020.47 1020.17 1019.91 1019.70 1019.56 1019.51 1019.56 1019.69 1019.91 1020.19 1020.49 1020.79 1021.07 1021.31 1021.51 1021.66 1021.78
1029.51 1029.18 1028.84 1028.46 1028.08 1027.69 1027.30 1026.92 1026.55 1026.21 1025.87 1025.53 1025.18 1024.82 1024.44 1024.05 1023.66 1023.28 1022.93 1022.61 1022.33 1022.08 1021.85 1021.62 1021.38 1021.13 1020.86 1020.58 1020.31 1020.08 1019.91 1019.82 1019.83 1019.93 1020.12 1020.38 1020.67 1020.98 1021.28 1021.54 1021.76 1021.94 1022.09
1029.55 1029.18 1028.79 1028.39 1027.98 1027.59 1027.22 1026.89 1026.58 1026.29 1026.00 1025.69 1025.36 1024.99 1024.59 1024.16 1023.73 1023.32 1022.94 1022.61 1022.33 1022.11 1021.92 1021.75 1021.57 1021.38 1021.16 1020.92 1020.68 1020.45 1020.28 1020.17 1020.15 1020.23 1020.39 1020.63 1020.90 1021.20 1021.50 1021.77 1022.00 1022.19 1022.35
1029.60 1029.22 1028.81 1028.39 1027.97 1027.58 1027.23 1026.92 1026.65 1026.40 1026.14 1025.86 1025.53 1025.16 1024.73 1024.27 1023.80 1023.34 1022.93 1022.58 1022.31 1022.10 1021.95 1021.82 1021.70 1021.56 1021.40 1021.21 1021.01 1020.81 1020.65 1020.54 1020.51 1020.57 1020.71 1020.91 1021.17 1021.44 1021.71 1021.97 1022.20 1022.39 1022.56
1029.64 1029.28 1028.87 1028.45 1028.02 1027.63 1027.29 1026.99 1026.73 1026.50 1026.26 1025.99 1025.67 1025.28 1024.83 1024.34 1023.83 1023.35 1022.91 1022.54 1022.26 1022.07 1021.93 1021.84 1021.77 1021.68 1021.58 1021.44 1021.29 1021.13 1020.99 1020.90 1020.87 1020.91 1021.02 1021.20 1021.41 1021.66 1021.90 1022.14 1022.35 1022.54 1022.71
1029.66 1029.32 1028.93 1028.51 1028.09 1027.69 1027.35 1027.05 1026.80 1026.56 1026.32 1026.05 1025.72 1025.32 1024.85 1024.34 1023.81 1023.30 1022.85 1022.47 1022.18 1021.99 1021.87 1021.81 1021.77 1021.73 1021.67 1021.58 1021.48 1021.36 1021.25 1021.17 1021.15 1021.18 1021.27 1021.42 1021.61 1021.82 1022.04 1022.25 1022.45 1022.64 1022.82
1029.62 1029.32 1028.95 1028.54 1028.13 1027.73 1027.38 1027.07 1026.81 1026.56 1026.31 1026.03 1025.68 1025.26 1024.79 1024.26 1023.72 1023.20 1022.73 1022.34 1022.05 1021.86 1021.75 1021.70 1021.69 1021.68 1021.65 1021.61 1021.54 1021.46 1021.38 1021.33 1021.31 1021.34 1021.42 1021.55 1021.71 1021.90 1022.11 1022.31 1022.52 1022.71 1022.90
1029.52 1029.26 1028.92 1028.53 1028.13 1027.73 1027.37 1027.05 1026.77 1026.50 1026.23 1025.92 1025.56 1025.13 1024.64 1024.10 1023.56 1023.03 1022.55 1022.16 1021.87 1021.67 1021.56 1021.51 1021.51 1021.51 1021.51 1021.49 1021.46 1021.41 1021.36 1021.33 1021.33 1021.36 1021.45 1021.57 1021.74 1021.93 1022.13 1022.35 1022.56 1022.78 1023.00
1029.38 1029.14 1028.83 1028.46 1028.07 1027.68 1027.32 1026.98 1026.68 1026.39 1026.09 1025.77 1025.38 1024.94 1024.44 1023.90 1023.34 1022.81 1022.34 1021.94 1021.64 1021.43 1021.31 1021.25 1021.24 1021.25 1021.26 1021.26 1021.25 1021.22 1021.20 1021.20 1021.22 1021.28 1021.39 1021.53 1021.71 1021.92 1022.15 1022.39 1022.63 1022.88 1023.13
1029.21 1028.99 1028.70 1028.35 1027.97 1027.59 1027.23 1026.89 1026.57 1026.26 1025.94 1025.59 1025.18 1024.73 1024.21 1023.67 1023.12 1022.59 1022.11 1021.70 1021.39 1021.17 1021.03 1020.96 1020.93 1020.93 1020.94 1020.95 1020.95 1020.96 1020.97 1021.00 1021.06 1021.16 1021.30 1021.48 1021.69 1021.93 1022.19 1022.47 1022.76 1023.04 1023.33
1029.02 1028.81 1028.53 1028.20 1027.84 1027.47 1027.11 1026.77 1026.44 1026.12 1025.78 1025.41 1024.99 1024.52 1024.00 1023.46 1022.90 1022.38 1021.89 1021.49 1021.16 1020.93 1020.77 1020.68 1020.63 1020.62 1020.63 1020.64 1020.66 1020.69 1020.73 1020.81 1020.91 1021.06 1021.24 1021.47 1021.73 1022.01 1022.32 1022.63 1022.95 1023.27 1023.57
1028.83 1028.62 1028.34 1028.02 1027.67 1027.31 1026.96 1026.62 1026.29 1025.96 1025.61 1025.23 1024.80 1024.32 1023.81 1023.27 1022.72 1022.20 1021.73 1021.32 1021.00 1020.75 1020.57 1020.46 1020.41 1020.38 1020.38 1020.40 1020.44 1020.50 1020.58 1020.70 1020.85 1021.05 1021.29 1021.56 1021.86 1022.18 1022.52 1022.86 1023.20 1023.53 1023.85
1028.65 1028.42 1028.13 1027.81 1027.46 1027.12 1026.77 1026.44 1026.11 1025.77 1025.42 1025.03 1024.60 1024.13 1023.62 1023.10 1022.57 1022.08 1021.62 1021.23 1020.91 1020.66 1020.48 1020.36 1020.30 1020.27 1020.27 1020.30 1020.36 1020.45 1020.57 1020.73 1020.93 1021.18 1021.46 1021.77 1022.11 1022.45 1022.81 1023.15 1023.49 1023.81 1024.11
1028.46 1028.20 1027.90 1027.56 1027.22 1026.87 1026.54 1026.21 1025.88 1025.54 1025.18 1024.80 1024.37 1023.92 1023.43 1022.94 1022.45 1021.99 1021.57 1021.21 1020.91 1020.68 1020.51 1020.40 1020.33 1020.31 1020.32 1020.37 1020.45 1020.57 1020.72 1020.92 1021.17 1021.45 1021.77 1022.10 1022.45 1022.80 1023.14 1023.47 1023.78 1024.06 1024.31
1028.25 1027.96 1027.63 1027.28 1026.93 1026.58 1026.25 1025.91 1025.59 1025.25 1024.89 1024.51 1024.10 1023.67 1023.22 1022.77 1022.33 1021.93 1021.56 1021.25 1020.99 1020.80 1020.66 1020.57 1020.52 1020.51 1020.54 1020.60 1020.71 1020.85 1021.04 1021.27 1021.54 1021.85 1022.18 1022.52 1022.86 1023.19 1023.50 1023.78 1024.03 1024.25 1024.44
1028.02 1027.69 1027.33 1026.97 1026.61 1026.26 1025.92 1025.58 1025.25 1024.91 1024.56 1024.18 1023.79 1023.39 1022.99 1022.59 1022.22 1021.88 1021.58 1021.34 1021.14 1021.00 1020.91 1020.85 1020.84 1020.85 1020.90 1020.98 1021.11 1021.27 1021.48 1021.73 1022.01 1022.32 1022.65 1022.97 1023.29 1023.58 1023.83 1024.05 1024.23 1024.37 1024.49
1027.75 1027.39 1027.02 1026.65 1026.28 1025.92 1025.58 1025.24 1024.90 1024.55 1024.20 1023.84 1023.47 1023.10 1022.74 1022.41 1022.10 1021.84 1021.62 1021.46 1021.34 1021.26 1021.22 1021.22 1021.24 1021.28 1021.35 1021.46 1021.60 1021.77 1021.99 1022.24 1022.52 1022.82 1023.13 1023.42 1023.69 1023.93 1024.12 1024.27 1024.37 1024.43 1024.46
1027.45 1027.08 1026.71 1026.33 1025.97 1025.62 1025.27 1024.92 1024.58 1024.23 1023.87 1023.52 1023.16 1022.83 1022.51 1022.24 1022.00 1021.82 1021.69 1021.60 1021.56 1021.56 1021.58 1021.62 1021.68 1021.76 1021.85 1021.97 1022.11 1022.29 1022.50 1022.75 1023.01 1023.29 1023.57 1023.82 1024.04 1024.22 1024.35 1024.42 1024.45 1024.44 1024.39
1027.13 1026.77 1026.41 1026.06 1025.71 1025.37 1025.02 1024.68 1024.33 1023.97 1023.61 1023.26 1022.92 1022.61 1022.33 1022.11 1021.94 1021.83 1021.77 1021.76 1021.79 1021.85 1021.93 1022.02 1022.12 1022.22 1022.33 1022.46 1022.61 1022.78 1022.98 1023.20 1023.44 1023.69 1023.92 1024.13 1024.31 1024.43 1024.50 1024.51 1024.48 1024.40 1024.29
1026.80 1026.47 1026.14 1025.83 1025.51 1025.19 1024.86 1024.52 1024.17 1023.81 1023.44 1023.09 1022.76 1022.47 1022.22 1022.04 1021.92 1021.87 1021.88 1021.93 1022.03 1022.14 1022.27 1022.40 1022.53 1022.65 1022.77 1022.89 1023.03 1023.19 1023.37 1023.56 1023.77 1023.98 1024.17 1024.34 1024.47 1024.55 1024.57 1024.53 1024.45 1024.32 1024.17
1026.48 1026.19 1025.92 1025.65 1025.37 1025.08 1024.77 1024.45 1024.09 1023.73 1023.37 1023.01 1022.69 1022.41 1022.19 1022.04 1021.96 1021.95 1022.00 1022.11 1022.25 1022.40 1022.56 1022.72 1022.86 1022.99 1023.11 1023.23 1023.35 1023.49 1023.64 1023.80 1023.97 1024.14 1024.29 1024.42 1024.51 1024.55 1024.53 1024.46 1024.34 1024.19 1024.01
1026.17 1025.94 1025.73 1025.51 1025.28 1025.02 1024.74 1024.42 1024.08 1023.72 1023.36 1023.01 1022.70 1022.43 1022.23 1022.10 1022.04 1022.06 1022.14 1022.27 1022.43 1022.61 1022.78 1022.95 1023.10 1023.23 1023.34 1023.44 1023.54 1023.65 1023.77 1023.89 1024.02 1024.15 1024.26 1024.36 1024.41 1024.42 1024.38 1024.28 1024.15 1023.98 1023.79
1025.90 1025.72 1025.56 1025.38 1025.19 1024.97 1024.71 1024.41 1024.08 1023.74 1023.38 1023.05 1022.74 1022.49 1022.30 1022.18 1022.14 1022.17 1022.26 1022.40 1022.57 1022.75 1022.92 1023.08 1023.22 1023.33 1023.43 1023.50 1023.58 1023.65 1023.73 1023.82 1023.91 1024.00 1024.08 1024.14 1024.16 1024.15 1024.09 1023.98 1023.84 1023.67 1023.48
1025.67 1025.53 1025.40 1025.26 1025.09 1024.89 1024.65 1024.37 1024.06 1023.73 1023.40 1023.08 1022.79 1022.56 1022.38 1022.28 1022.24 1022.27 1022.36 1022.49 1022.64 1022.80 1022.95 1023.09 1023.20 1023.29 1023.36 1023.41 1023.45 1023.49 1023.54 1023.59 1023.64 1023.70 1023.74 1023.77 1023.77 1023.74 1023.67 1023.56 1023.42 1023.25 1023.06
1025.49 1025.37 1025.25 1025.11 1024.95 1024.76 1024.53 1024.27 1023.98 1023.67 1023.37 1023.08 1022.82 1022.60 1022.44 1022.35 1022.31 1022.33 1022.40 1022.50 1022.62 1022.75 1022.87 1022.97 1023.05 1023.11 1023.14 1023.16 1023.17 1023.18 1023.19 1023.21 1023.23 1023.25 1023.27 1023.27 1023.26 1023.21 1023.14 1023.03 1022.89 1022.73 1022.55
1025.36 1025.23 1025.09 1024.95 1024.78 1024.58 1024.35 1024.10 1023.83 1023.56 1023.28 1023.03 1022.80 1022.61 1022.47 1022.37 1022.33 1022.33 1022.37 1022.43 1022.51 1022.59 1022.67 1022.72 1022.76 1022.78 1022.78 1022.76 1022.74 1022.72 1022.70 1022.69 1022.69 1022.68 1022.68 1022.67 1022.64 1022.59 1022.51 1022.41 1022.28 1022.13 1021.97
Thickness
5374 5370 5366 5362 5358 5355 5352 5350 5348 5347 5346 5345 5346 5346 5347 5348 5349 5350 5352 5353 5355 5357 5359 5362 5366 5368 5372 5376 5379 5383 5387 5391 5398 5408 5412 5417 5421 5426 5432 5438 5444 5449 5454
5361 5357 5353 5349 5345 5342 5339 5337 5335 5334 5333 5333 5333 5333 5333 5334 5335 5336 5338 5339 5341 5343 5345 5348 5351 5354 5358 5361 5365 5369 5373 5377 5382 5390 5396 5401 5406 5411 5416 5422 5428 5434 5439
5348 5343 5339 5336 5332 5329 5326 5324 5323 5322 5321 5320 5320 5320 5320 5320 5322 5323 5325 5326 5328 5330 5332 5335 5338 5341 5345 5348 5351 5356 5360 5365 5369 5374 5382 5387 5392 5397 5401 5408 5413 5419 5424
5335 5331 5327 5323 5320 5317 5315 5313 5311 5310 5309 5308 5308 5307 5308 5308 5310 5311 5312 5314 5316 5318 5320 5323 5326 5329 5333 5336 5340 5344 5348 5352 5356 5361 5368 5374 5378 5383 5387 5393 5399 5404 5410
5324 5320 5316 5312 5309 5306 5304 5301 5300 5298 5297 5296 5296 5296 5296 5297 5298 5300 5301 5303 5305 5307 5310 5312 5316 5319 5322 5325 5329 5333 5336 5340 5344 5348 5355 5360 5366 5369 5373 5377 5383 5389 5395
5313 5309 5305 5302 5299 5296 5294 5291 5290 5288 5287 5286 5285 5285 5286 5286 5288 5290 5292 5293 5295 5297 5300 5302 5306 5309 5312 5315 5319 5322 5325 5328 5332 5336 5342 5347 5353 5356 5359 5363 5367 5373 5382
5302 5298 5295 5292 5289 5286 5284 5282 5280 5278 5277 5276 5276 5276 5276 5276 5278 5280 5282 5284 5285 5287 5289 5293 5296 5300 5302 5304 5308 5311 5314 5317 5321 5325 5330 5335 5340 5344 5346 5350 5353 5358 5366
5291 5288 5285 5282 5279 5277 5274 5272 5270 5269 5267 5267 5267 5267 5267 5268 5269 5271 5273 5274 5275 5277 5279 5282 5285 5289 5292 5294 5297 5300 5303 5307 5311 5315 5320 5325 5328 5330 5333 5336 5340 5344 5351
5282 5278 5275 5272 5270 5268 5265 5263 5262 5260 5259 5259 5259 5259 5259 5259 5260 5262 5264 5265 5266 5268 5270 5273 5275 5279 5283 5285 5287 5290 5293 5297 5300 5304 5309 5313 5316 5319 5321 5323 5326 5329 5337
5273 5270 5266 5263 5261 5259 5257 5255 5254 5253 5252 5252 5252 5251 5251 5251 5252 5254 5256 5256 5258 5260 5262 5265 5267 5270 5274 5276 5277 5280 5283 5287 5290 5294 5298 5302 5305 5308 5311 5312 5315 5317 5322
5264 5261 5257 5254 5252 5251 5250 5248 5246 5245 5244 5244 5244 5244 5244 5244 5245 5246 5248 5248 5250 5252 5254 5256 5258 5261 5265 5267 5269 5271 5275 5278 5280 5283 5287 5291 5294 5297 5300 5303 5304 5307 5310
5254 5251 5248 5246 5244 5243 5241 5240 5238 5237 5236 5236 5236 5236 5236 5237 5237 5239 5240 5242 5243 5244 5246 5248 5250 5254 5257 5259 5261 5263 5266 5268 5269 5272 5276 5280 5283 5287 5290 5293 5295 5297 5300
5245 5242 5240 5238 5236 5235 5233 5232 5230 5229 5228 5228 5228 5228 5229 5229 5229 5231 5233 5234 5236 5237 5239 5241 5244 5247 5249 5250 5252 5254 5255 5256 5259 5261 5265 5269 5272 5275 5278 5281 5285 5287 5290
5237 5234 5232 5230 5229 5227 5225 5224 5222 5221 5219 5219 5219 5220 5220 5221 5222 5223 5224 5226 5228 5230 5231 5234 5237 5239 5240 5242 5244 5244 5245 5246 5249 5252 5255 5258 5260 5263 5266 5269 5273 5276 5279
5228 5226 5224 5223 5220 5219 5218 5216 5215 5214 5212 5212 5212 5211 5212 5214 5215 5217 5218 5219 5221 5223 5225 5226 5227 5230 5231 5233 5234 5235 5236 5238 5239 5242 5244 5246 5249 5253 5256 5259 5261 5264 5267
5222 5219 5217 5215 5213 5212 5210 5209 5208 5207 5207 5206 5205 5205 5206 5207 5208 5210 5211 5213 5214 5216 5216 5217 5218 5220 5222 5224 5225 5227 5228 5230 5232 5233 5235 5236 5239 5242 5245 5249 5252 5255 5258
5214 5211 5209 5208 5206 5204 5203 5202 5202 5201 5199 5198 5198 5198 5198 5200 5201 5201 5203 5205 5206 5207 5206 5207 5208 5210 5211 5213 5215 5217 5219 5221 5223 5224 5226 5227 5229 5232 5235 5239 5242 5246 5249
5207 5205 5203 5201 5198 5197 5195 5195 5194 5193 5192 5190 5190 5189 5191 5192 5192 5193 5194 5195 5196 5196 5197 5198 5199 5201 5202 5203 5205 5208 5210 5212 5214 5215 5217 5218 5220 5223 5226 5229 5233 5237 5240
5201 5199 5197 5194 5193 5191 5190 5189 5187 5185 5183 5182 5182 5182 5182 5183 5184 5184 5185 5185 5186 5187 5188 5189 5190 5192 5193 5194 5196 5198 5201 5204 5206 5207 5209 5211 5213 5215 5218 5221 5225 5229 5232
5195 5194 5192 5189 5188 5186 5184 5183 5180 5178 5175 5174 5174 5173 5174 5175 5176 5177 5177 5177 5178 5179 5180 5182 5183 5184 5185 5187 5189 5191 5194 5197 5199 5200 5202 5204 5206 5208 5210 5214 5217 5221 5225
5189 5187 5186 5184 5182 5180 5178 5176 5174 5171 5169 5167 5167 5167 5168 5168 5168 5168 5169 5170 5170 5172 5173 5175 5176 5178 5179 5181 5182 5184 5187 5190 5192 5194 5196 5198 5200 5202 5205 5208 5211 5215 5218
5183 5181 5179 5178 5176 5174 5172 5171 5168 5166 5164 5162 5161 5161 5162 5161 5161 5161 5162 5163 5164 5165 5167 5168 5170 5172 5173 5175 5177 5179 5181 5184 5186 5188 5191 5193 5195 5198 5200 5203 5206 5210 5213
5177 5175 5174 5172 5170 5169 5167 5164 5162 5160 5159 5157 5157 5156 5156 5155 5155 5156 5157 5158 5159 5160 5162 5164 5165 5167 5169 5171 5172 5174 5176 5179 5181 5183 5186 5189 5192 5194 5197 5199 5202 5206 5209
5172 5169 5167 5166 5164 5162 5160 5158 5156 5155 5153 5152 5151 5151 5150 5150 5150 5151 5152 5153 5154 5156 5158 5159 5161 5163 5165 5167 5169 5171 5173 5175 5178 5180 5183 5186 5189 5192 5194 5196 5198 5201 5204
5165 5163 5162 5159 5157 5156 5154 5152 5150 5149 5148 5147 5146 5146 5145 5145 5145 5146 5147 5149 5150 5152 5154 5155 5158 5160 5162 5165 5167 5169 5171 5174 5177 5179 5182 5184 5187 5189 5191 5193 5195 5197 5198
5159 5157 5155 5153 5151 5149 5148 5146 5145 5143 5142 5141 5141 5140 5140 5140 5141 5142 5143 5144 5146 5148 5150 5152 5154 5157 5159 5162 5164 5167 5170 5173 5175 5178 5180 5182 5184 5186 5187 5189 5191 5192 5194